Location: Poughquag
(41.6090°N, 73.6820°W)
Time: 11:55:41
(UTC-04:00)

Tiros 1 despin weight - Pass Details

Date: 05 June 2020
Orbit: 593 x 642 km, 48.2° (Epoch: 07 July)

Event Time Altitude Azimuth Distance (km) Brightness Sun altitude
Rises 09:02:18 0° 232° (SW) 2,931 ? 38.6°
Reaches altitude 10° 09:04:38 10° 230° (SW) 2,021 ? 39.0°
Maximum altitude 09:09:16 68° 147° (SSE) 683 ? 39.9°
Drops below altitude 10° 09:13:52 10° 65° (ENE) 2,007 ? 40.7°
Sets 09:16:10 0° 63° (ENE) 2,909 ? 41.2°
